Flag for Germany Weather past 2 weeks in Jena, Thuringia, Germany

Now
63 °F

Scattered clouds.


Feels Like: 63 °F
Forecast: 44 / 67 °F
Wind: 12 mph from West

Location: Erfurt-Bindersleben

Current Time: Aug 21, 2014 at 2:38:28 PM

Latest Report: Aug 21, 2014 at 1:50 PM


Visibility: N/A

Pressure: 30.04 "Hg

Humidity: 45%

Dew point: 41 °F

Location of JenaLocation

Historic Weather in Jena — Graph

°F

Jena temperature yesterday

Maximum temperature yesterday: 63 °F (at 3:50 PM)
Minimum temperature yesterday: 45 °F (at 4:20 AM)
Average temperature yesterday: 53 °F

Past Weeks' High & Low Weather Summary

 TemperatureHumidityPressure
High79 °F (Aug 10, 3:20 PM)100% (Aug 8, 3:50 AM)30.07 "Hg (Aug 8, 3:50 AM)
Low43 °F (Aug 21, 5:20 AM)35% (Aug 12, 5:50 PM)29.65 "Hg (Aug 13, 3:50 PM)
Average61 °F72%29.90 "Hg
* Reported Aug 6 1:20 PM — Aug 21 1:20 PM, Jena, Weather by CustomWeather, © 2014

Note: Actual official high and low records may vary slightly from our data, if they occured in-between our weather recording intervals... More about our weather records

Advertising

Jena weather history for previous 24 hours

 ConditionsComfort  
Time TempWeatherWind HumidityBarometerVisibility
1:20 PM
Aug 21
63 °FScattered clouds.12 mph52%30.04 "HgN/A
12:50 PM61 °FScattered clouds.9 mph55%30.04 "HgN/A
12:20 PM61 °FScattered clouds.9 mph55%30.04 "HgN/A
11:50 AM59 °FScattered clouds.12 mph63%30.04 "HgN/A
11:20 AM59 °FPassing clouds.7 mph59%30.04 "HgN/A
10:50 AM57 °FPassing clouds.9 mph63%30.04 "HgN/A
10:20 AM55 °FPassing clouds.9 mph67%30.04 "HgN/A
9:50 AM55 °FPassing clouds.10 mph72%30.04 "HgN/A
9:20 AM55 °FSunny.10 mph72%30.04 "Hg10 mi
8:50 AM54 °FSunny.7 mph77%30.04 "Hg10 mi
8:20 AM50 °FSunny.3 mph88%30.04 "Hg10 mi
7:50 AM46 °FSunny.7 mph87%30.04 "Hg10 mi
7:20 AM45 °FSunny.9 mph93%30.01 "Hg10 mi
6:50 AM43 °FClear.9 mph93%30.01 "Hg10 mi
6:20 AM43 °FClear.10 mph100%30.01 "Hg10 mi
5:50 AM43 °FClear.5 mph93%30.01 "Hg10 mi
5:20 AM43 °FClear.6 mph93%30.01 "Hg10 mi
4:50 AM45 °FClear.9 mph87%30.01 "Hg10 mi
4:20 AM45 °FClear.8 mph93%30.01 "Hg10 mi
3:50 AM45 °FClear.8 mph87%30.01 "Hg10 mi
3:20 AM46 °FClear.7 mph87%30.01 "Hg10 mi
2:50 AM46 °FClear.8 mph87%30.01 "Hg10 mi
2:20 AM48 °FClear.8 mph82%30.01 "Hg10 mi
1:50 AM48 °FClear.9 mph82%30.01 "Hg10 mi
1:20 AM48 °FClear.9 mph82%30.01 "Hg10 mi
12:50 AM48 °FClear.7 mph82%30.01 "Hg10 mi
12:20 AM50 °FClear.7 mph82%30.01 "Hg10 mi
11:50 PM
Aug 20
50 °FClear.7 mph82%30.01 "Hg10 mi
11:20 PM50 °FClear.8 mph82%30.01 "Hg10 mi
10:50 PM50 °FClear.6 mph76%30.01 "Hg10 mi
10:20 PM52 °FClear.5 mph72%30.01 "Hg10 mi
9:50 PM54 °FClear.6 mph67%30.01 "Hg10 mi
9:20 PM54 °FSunny.6 mph67%30.01 "Hg10 mi
8:50 PM54 °FSunny.7 mph67%30.01 "Hg10 mi
8:20 PM54 °FSunny.8 mph63%30.01 "Hg10 mi
7:50 PM55 °FScattered clouds.7 mph59%29.98 "HgN/A
7:20 PM57 °FScattered clouds.7 mph51%29.98 "HgN/A
6:50 PM59 °FPartly sunny.8 mph48%29.98 "HgN/A
6:20 PM59 °FScattered clouds.10 mph45%30.01 "HgN/A
5:50 PM61 °FScattered clouds.10 mph45%30.01 "HgN/A
5:20 PM63 °FScattered clouds.10 mph39%30.01 "HgN/A
4:50 PM63 °FScattered clouds.12 mph39%30.01 "HgN/A
4:20 PM63 °FScattered clouds.10 mph39%30.01 "HgN/A
3:50 PM63 °FScattered clouds.12 mph45%30.01 "HgN/A
3:20 PM61 °FPartly sunny.13 mph48%30.01 "HgN/A
2:50 PM59 °FScattered clouds.10 mph55%30.01 "HgN/A
2:20 PM59 °FScattered clouds.12 mph55%30.01 "HgN/A
Weather by CustomWeather, © 2014

See weather overviewHow to use our weather pages